Simultaneous Nadir Overpasses (SNOs) Predictions

Prediction of SNOs between GOES-14 and AQUA Satellite Orbit:

Table of predicted SNOs for the next 14.0 days since TLE Epoch: 8/19/2023
Index Date Time (GOES-14) GOES-14 Lat,Lon AQUA Lat,Lon Distance(km) Time Diff (sec)
1 08/19/2023 21:03:55 0.48,-108.55 0.66,-107.61 105.92 80
2 08/20/2023 09:21:56 -0.49,-108.65 0.37,-112.63 453.31 80
3 08/22/2023 09:07:32 -0.49,-108.65 -0.39,-109.12 53.68 80
4 08/24/2023 08:55:47 -0.50,-108.64 -1.12,-105.60 345.60 80
5 08/24/2023 21:13:57 0.51,-108.54 0.07,-110.65 239.34 80
6 08/26/2023 21:02:11 0.51,-108.53 0.79,-107.12 159.55 80
7 08/27/2023 09:20:13 -0.52,-108.63 0.21,-112.14 399.73 80
8 08/29/2023 09:08:27 -0.53,-108.61 -0.54,-108.62 2.07 80
9 08/31/2023 08:54:00 -0.53,-108.60 -1.27,-105.09 398.80 80
10 08/31/2023 21:12:09 0.53,-108.50 0.21,-110.14 185.72 80
